weather.gov     
National Weather Service

Regional Weather Roundup
NWS Homepage
This page is being discontinued on March 12, 2014.
The same data is available at this site. Please update your bookmarks.
Thank you, and we apologize for the inconvenience.
Please send an email to SR-SRH.Webmaster@noaa.gov with any concerns.


Current Version
Previous Version:    01  02  03  04  05  06  07  08  09  10  11  12  13  14  15  16  17  18  19  20  21  22  23  24  25  26  27  28  29  30  
   31  32  33  34  35  36  37  38  39  40  41  42  43  44  45  46  47  48  49  50  51  52  53  54  55  56  57  58  59  60  
[Printable]
929
ASUS43 KBIS 300420
RWRBIS

NWR BROADCAST TEXT
NATIONAL WEATHER SERVICE BISMARCK ND
1000 PM CST THU JAN 29 2015

NOTE: "FAIR" INDICATES FEW OR NO CLOUDS BELOW 12,000 FEET WITH NO
SIGNIFICANT WEATHER AND/OR OBSTRUCTIONS TO VISIBILITY.


CITY           SKY/WX    TMP DP  RH WIND       PRES   REMARKS
WILLISTON      CLEAR     26  20  77 S3        30.30F
MINOT          CLEAR     14  10  84 SE7       30.38F WCI   4
MINOT AFB      MOCLDY    13  12  98 SE8       30.39F WCI   1
BISMARCK       CLEAR     18  15  88 SE7       30.45F WCI   9
DICKINSON      CLEAR     23  18  81 S9        30.30F WCI  13
GARRISON         N/A     17  14  88 SE6       30.39F WCI   9
HETTINGER ARPT CLEAR     26  15  63 SE6       30.34F WCI  19
JAMESTOWN      CLOUDY    16  11  80 CALM      30.49F
BEACH          FAIR      27  23  86 S8        30.29F WCI  18
CARRINGTON     CLOUDY    16  14  93 MISG      30.47F
CROSBY         FAIR      21  21 100 S5        30.32F WCI  15
HARVEY         CLOUDY    14  10  85 SE8       30.44F WCI   3
HAZEN          FAIR      19  16  86 E3        30.41F
LINTON         FAIR      19  19 100 SE8       30.45F WCI   9
MANDAN         FAIR      16  16 100 SE8       30.43F WCI   5
OAKES            N/A     18  14  86 N6        30.53S WCI   9
RUGBY          FAIR       9   7  92 SE8       30.44F WCI  -4
STANLEY        FAIR      19  19 100 S9        30.32F WCI   9
TIOGA          FAIR      23  23 100 S15       30.33F WCI  10
WATFORD CITY   FAIR      25  21  86 SE7       30.29F WCI  17
$$

CITY           SKY/WX    TMP DP  RH WIND       PRES   REMARKS
GRAND FORKS    PTCLDY     6   0  76 CALM      30.59R
GRAND FORKS AF PTCLDY     5  -1  78 N2        30.58S
DEVILS LAKE    CLOUDY    10   5  79 SE7       30.47F WCI   0
FARGO          FAIR       8   1  73 N6        30.59R WCI  -2
CANDO          CLOUDY     9   5  85 SE8       30.47F WCI  -4
CAVALIER       FAIR       5   0  78 CALM      30.57F
GWINNER        CLOUDY    19  12  73 NE5       30.55F WCI  13
ROLLA          CLOUDY     7   5  92 S12       30.42F WCI  -9
WALHALLA         N/A      5   1  85 SE3       30.56S
$$

CITY           SKY/WX    TMP DP  RH WIND       PRES   REMARKS
ABERDEEN       MOCLDY    19  14  81 N3        30.54R
MOBRIDGE       CLEAR     21  18  88 E7        30.43F WCI  12
BUFFALO          N/A     28  12  51 SE8       30.26F WCI  20
RAPID CITY     CLEAR     29   9  43 SE5       30.35F
GLASGOW        CLEAR     30  25  81 E10       30.21F
SIDNEY         CLEAR     27  21  80 CALM      30.29F
WOLF POINT     CLEAR     27  22  81 NE6       30.25F
GLENDIVE       CLEAR     28  19  69 S6        30.26F
MILES CITY     CLEAR     33  23  66 S10       30.25F
BAKER          CLEAR     29  17  61 SE9       30.28F
$$

CITY           SKY/WX    TMP DP  RH WIND       PRES   REMARKS
BILLINGS       PTCLDY    40  28  62 SW18      30.23F
GREAT FALLS    PTCLDY    36  19  50 SW13      30.21R
REGINA         PTCLDY    16  14  93 SE15      30.25F WCI   1
ESTEVAN        MOCLDY    16  14  93 E8        30.33S WCI   5
$$





U.S. Dept. of Commerce
NOAA National Weather Service
1325 East West Highway
Silver Spring, MD 20910
E-mail: w-nws.webmaster@noaa.gov
Page last modified: May 16, 2007
NATIONAL WEATHER SERVICE: for Safety, for Work, for Fun - FOR LIFE